Flag for Germany Weather past 2 weeks in Kaiserslautern, Rhineland-Palatinate, Germany

Now
56 °F

Partly sunny.


Feels Like: 55 °F
Forecast: 44 / 62 °F
Wind: 6 mph from Southwest

Location: Ramstein

Current Time: May 29, 2015 at 10:56:22 PM

Latest Report: May 29, 2015 at 9:58 PM


Visibility: N/A

Pressure: 29.86 "Hg

Humidity: 70%

Dew point: 47 °F

Location of KaiserslauternLocation

Historic Weather in Kaiserslautern — Graph

°F

Kaiserslautern temperature yesterday

Maximum temperature yesterday: 70 °F (at 2:58 PM)
Minimum temperature yesterday: 36 °F (at 5:58 AM)
Average temperature yesterday: 55 °F

Past Weeks' High & Low Weather Summary

 TemperatureHumidityPressure
High72 °F (May 18, 5:58 PM)100% (May 15, 3:03 AM)30.35 "Hg (May 15, 3:03 AM)
Low32 °F (May 21, 3:58 AM)33% (May 18, 5:58 PM)29.69 "Hg (May 19, 2:58 AM)
Average55 °F70%30.07 "Hg
* Reported May 14 9:58 PM — May 29 9:58 PM, Kaiserslautern, Weather by CustomWeather, © 2015

Note: Actual official high and low records may vary slightly from our data, if they occured in-between our weather recording intervals... More about our weather records

Advertising

Kaiserslautern weather history for previous 24 hours

 ConditionsComfort  
Time TempWeatherWind HumidityBarometerVisibility
9:58 PM
Fri, May 29
56 °FPartly sunny.6 mph70%29.86 "HgN/A
8:58 PM57 °FSunny.7 mph69%29.84 "HgN/A
7:58 PM60 °FSunny.8 mph65%29.85 "HgN/A
6:58 PM61 °FScattered clouds.18 mph65%29.83 "HgN/A
5:58 PM60 °FBroken clouds.20 mph77%29.83 "HgN/A
4:58 PM59 °FBroken clouds.6 mph88%29.84 "HgN/A
3:58 PM55 °FLight rain. Fog.5 mph100%29.87 "HgN/A
2:58 PM63 °FScattered clouds.7 mph64%29.84 "HgN/A
1:58 PM64 °FBroken clouds.12 mph60%29.85 "HgN/A
12:58 PM63 °FPassing clouds.8 mph64%29.88 "HgN/A
11:58 AM62 °FScattered clouds.7 mph60%29.89 "HgN/A
10:58 AM62 °FPassing clouds.9 mph59%29.91 "HgN/A
9:58 AM63 °FPassing clouds.6 mph56%29.91 "HgN/A
8:58 AM57 °FPartly sunny.2 mph72%29.92 "HgN/A
7:58 AM52 °FPassing clouds.No wind83%29.94 "HgN/A
6:58 AM46 °FPartly sunny.1 mph100%29.94 "HgN/A
5:58 AM46 °FPassing clouds.No wind99%29.94 "HgN/A
4:58 AM45 °FPassing clouds.No wind100%29.96 "HgN/A
3:58 AM45 °FPassing clouds.No wind100%29.96 "HgN/A
2:58 AM50 °FPassing clouds.2 mph88%29.97 "HgN/A
1:58 AM53 °FClear.3 mph79%29.98 "HgN/A
12:58 AM54 °FClear.2 mph74%29.98 "HgN/A
11:58 PM
Thu, May 28
54 °FClear.2 mph75%29.98 "HgN/A
10:58 PM55 °FClear.5 mph71%29.98 "HgN/A
Weather by CustomWeather, © 2015

See weather overviewHow to use our weather pages